Regional Weather Roundup
Issued by NWS Columbia, SC

Home | Current Version | Previous Version | Text Only | Print | Product List | Glossary On
Versions: 1 2 3 4 5 6 7 8 9 10 11 12 13 14 15 16 17 18 19 20 21 22 23 24 25 26 27
000
ASUS42 KCAE 282210
RWRCAE
REGIONAL WEATHER ROUNDUP
NATIONAL WEATHER SERVICE COLUMBIA SC
600 PM EDT TUE MAR 28 2017

NOTE: "FAIR" INDICATES FEW OR NO CLOUDS BELOW 12,000 FEET WITH NO
SIGNIFICANT WEATHER AND/OR OBSTRUCTIONS TO VISIBILITY.

NOT ALL STATIONS ARE QUALITY CONTROLLED BY THE NATIONAL
WEATHER SERVICE. USE DATA WITH CAUTION...ESPECIALLY
DEWPOINT OBSERVATIONS.

SCZ001>056-GAZ040-063>065-077-282300-
...UPSTATE SOUTH CAROLINA...

CITY           SKY/WX    TMP DP  RH WIND       PRES   REMARKS
ANDERSON       MOSUNNY   80  54  40 W9        29.90S
LIBERTY        CLEAR     81  49  32 NW15G22   29.89S
SPARTANBURG    MOSUNNY   79  46  31 NW3       29.87S
CLEMSON        MOSUNNY   81  49  32 NW13G23   29.91S
GREENVILLE     SUNNY     82  44  26 W15G24    29.89S
GREENWOOD      MOSUNNY   81  48  31 W9G23     29.91S
GREER          PTSUNNY   80  44  27 SW13G24   29.87S
ROCK HILL      PTSUNNY   78  53  41 N10       29.89R
CHESTER        MOCLDY    81  46  30 W3        29.88S
LAURENS        CLEAR     79  55  44 W8        29.90R


...CENTRAL SOUTH CAROLINA...

CITY           SKY/WX    TMP DP  RH WIND       PRES   REMARKS
COLUMBIA APT   MOSUNNY   82  58  43 W6        29.87F
COLUMBIA OWENS MOSUNNY   82  57  42 SW10      29.88F
MCENTIRE ANGB  MOSUNNY   82  57  42 W9        29.88S
ORANGEBURG     SUNNY     83  56  39 W9        29.88F
SUMTER SHAW    MOSUNNY   83  57  40 W15       29.85S
NEWBERRY       CLEAR     81  54  39 W14G21    29.91S
AIKEN          FAIR      81  55  41 W7        29.93S
BARNWELL       FAIR      84  59  42 W10G18    29.89F
MANNING        FAIR      81  55  41 W8G16     29.87F
CAMDEN         FAIR      82  55  39 W10G16    29.87S
LANCASTER      PTCLDY    81  50  34 W12       29.87S
WINNSBORO      CLEAR     81  52  36 W8G17     29.88S


...EASTERN AND COASTAL SOUTH CAROLINA...

CITY           SKY/WX    TMP DP  RH WIND       PRES   REMARKS
MYRTLE BEACH   PTSUNNY   72  61  68 S17       29.87F
N MYRTLE BCH   SUNNY     68  61  78 SW18      29.86F
CONWAY         LGT RAIN  79  59  50 W6        29.87R
MARION         FAIR      81  54  39 W8        29.85F
HARTSVILLE     FAIR      81  54  39 W8        29.86R
FLORENCE       SUNNY     82  57  42 W7        29.86R
DARLINGTON     MOSUNNY   82  57  42 NW10      29.86S
CHARLESTON APT PTSUNNY   76  60  57 S12       29.89S
MOUNT PLEASANT FAIR      75  63  64 S10       29.89F
WALTERBORO     LGT RAIN  77  64  65 SW8G20    29.91R
BEAUFORT       LGT RAIN  73  66  78 NW22G30   29.92R


...EASTERN GEORGIA...

CITY           SKY/WX    TMP DP  RH WIND       PRES   REMARKS
AUGUSTA BUSH F SUNNY     84  59  42 W10       29.88F
AUGUSTA DANIEL MOSUNNY   83  57  41 W10       29.90F
THOMSON        SUNNY     82  57  43 N8        29.95F
WASHINGTON     FAIR      82  59  44 W7        29.91S
CLAXTON        FAIR      79  64  60 SW5       29.93S
SYLVANIA       MOCLDY   N/A N/A N/A NW8       29.92S
STATESBORO     MOSUNNY   83  63  51 W10G16    29.92S
SAVANNAH       CLOUDY    83  55  38 W13       29.91S


...SOUTHERN NORTH CAROLINA...

CITY           SKY/WX    TMP DP  RH WIND       PRES   REMARKS
CHARLOTTE      PTSUNNY   79  51  37 N13       29.89S
MONROE         PTSUNNY   78  51  38 N8        29.87S
WADESBORO      PTCLDY    80  53  38 N10G16    29.86S
ROCKINGHAM     CLEAR     78  54  42 NW8       29.86S
RUTHERFORDTON  MOSUNNY   78  49  36 NW6       29.91S
ASHEVILLE      SUNNY     71  47  42 N12G18    29.96R

$$




USA.gov is the U.S. government's official web portal to all federal, state and local government web resources and services.